Time,TemperatureF,DewpointF,PressureIn,WindDirection,WindDirectionDegrees,WindSpeedMPH,WindSpeedGustMPH,Humidity,HourlyPrecipIn,Conditions,Clouds,dailyrainin,SoftwareType,DateUTC
2013-06-15 00:13:00,54.6,54.0,29.90,East,97,0.0,2.0,96,0.00,,,0.00,weatherlink.com 1.10,2013-06-15 04:13:00,
2013-06-15 00:28:00,54.4,53.0,29.90,East,97,0.0,1.0,96,0.00,,,0.00,weatherlink.com 1.10,2013-06-15 04:28:00,
2013-06-15 00:43:00,54.7,54.0,29.90,East,96,0.0,1.0,96,0.00,,,0.00,weatherlink.com 1.10,2013-06-15 04:43:00,
2013-06-15 00:58:00,55.2,54.0,29.90,East,97,0.0,1.0,97,0.00,,,0.00,weatherlink.com 1.10,2013-06-15 04:58:00,
2013-06-15 01:13:00,54.8,54.0,29.90,East,101,0.0,1.0,96,0.00,,,0.00,weatherlink.com 1.10,2013-06-15 05:13:00,
2013-06-15 01:28:00,54.5,53.0,29.90,ESE,104,0.0,1.0,96,0.00,,,0.00,weatherlink.com 1.10,2013-06-15 05:28:00,
2013-06-15 01:43:00,54.1,53.0,29.91,ESE,104,0.0,1.0,96,0.00,,,0.00,weatherlink.com 1.10,2013-06-15 05:43:00,
2013-06-15 01:58:00,53.8,53.0,29.91,ESE,104,0.0,1.0,96,0.00,,,0.00,weatherlink.com 1.10,2013-06-15 05:58:00,
2013-06-15 02:13:00,53.7,53.0,29.91,ESE,104,0.0,2.0,97,0.00,,,0.00,weatherlink.com 1.10,2013-06-15 06:13:00,
2013-06-15 02:28:00,53.5,52.0,29.92,ESE,104,0.0,1.0,96,0.00,,,0.00,weatherlink.com 1.10,2013-06-15 06:28:00,
2013-06-15 02:43:00,53.3,52.0,29.92,ESE,104,0.0,1.0,96,0.00,,,0.00,weatherlink.com 1.10,2013-06-15 06:43:00,
2013-06-15 02:58:00,53.2,52.0,29.93,ESE,104,0.0,0.0,97,0.01,,,0.01,weatherlink.com 1.10,2013-06-15 06:58:00,
2013-06-15 03:13:00,52.9,52.0,29.92,ESE,104,0.0,1.0,97,0.01,,,0.01,weatherlink.com 1.10,2013-06-15 07:13:00,
2013-06-15 03:29:00,52.6,52.0,29.91,ESE,104,0.0,1.0,97,0.01,,,0.01,weatherlink.com 1.10,2013-06-15 07:29:00,
2013-06-15 03:44:00,52.5,52.0,29.91,ESE,109,0.0,1.0,97,0.01,,,0.01,weatherlink.com 1.10,2013-06-15 07:44:00,
2013-06-15 03:59:00,52.5,52.0,29.92,ESE,109,0.0,1.0,97,0.00,,,0.01,weatherlink.com 1.10,2013-06-15 07:59:00,
2013-06-15 04:14:00,52.6,52.0,29.92,ENE,73,0.0,2.0,97,0.00,,,0.01,weatherlink.com 1.10,2013-06-15 08:14:00,
2013-06-15 04:29:00,52.4,52.0,29.93,ENE,74,0.0,0.0,97,0.00,,,0.01,weatherlink.com 1.10,2013-06-15 08:29:00,
2013-06-15 04:44:00,52.4,52.0,29.93,ENE,74,0.0,1.0,97,0.00,,,0.01,weatherlink.com 1.10,2013-06-15 08:44:00,
2013-06-15 04:59:00,52.2,51.0,29.94,ENE,74,0.0,1.0,97,0.00,,,0.01,weatherlink.com 1.10,2013-06-15 08:59:00,
2013-06-15 05:14:00,52.1,51.0,29.94,ENE,74,0.0,0.0,97,0.00,,,0.01,weatherlink.com 1.10,2013-06-15 09:14:00,
2013-06-15 05:29:00,51.8,51.0,29.94,ENE,75,0.0,1.0,97,0.00,,,0.01,weatherlink.com 1.10,2013-06-15 09:29:00,
2013-06-15 05:44:00,51.7,51.0,29.94,East,94,0.0,2.0,97,0.00,,,0.01,weatherlink.com 1.10,2013-06-15 09:44:00,
2013-06-15 05:59:00,51.7,51.0,29.95,East,94,0.0,0.0,97,0.00,,,0.01,weatherlink.com 1.10,2013-06-15 09:59:00,
2013-06-15 06:14:00,51.6,51.0,29.95,East,94,0.0,0.0,97,0.00,,,0.01,weatherlink.com 1.10,2013-06-15 10:14:00,
2013-06-15 06:29:00,51.7,51.0,29.96,East,94,0.0,0.0,97,0.00,,,0.00,weatherlink.com 1.10,2013-06-15 10:29:00,
2013-06-15 06:44:00,52.1,51.0,29.96,East,94,0.0,0.0,97,0.00,,,0.00,weatherlink.com 1.10,2013-06-15 10:44:00,
2013-06-15 06:59:00,52.7,52.0,29.97,SSW,205,0.0,1.0,98,0.00,,,0.00,weatherlink.com 1.10,2013-06-15 10:59:00,
2013-06-15 07:14:00,53.9,53.0,29.96,WSW,253,0.0,1.0,98,0.00,,,0.00,weatherlink.com 1.10,2013-06-15 11:14:00,
2013-06-15 07:29:00,55.3,55.0,29.96,NNE,30,0.0,2.0,98,0.00,,,0.00,weatherlink.com 1.10,2013-06-15 11:29:00,
2013-06-15 07:44:00,56.8,56.0,29.98,NNE,19,0.0,2.0,98,0.00,,,0.00,weatherlink.com 1.10,2013-06-15 11:44:00,
2013-06-15 07:59:00,58.2,58.0,29.98,NNE,19,1.0,1.0,98,0.00,,,0.00,weatherlink.com 1.10,2013-06-15 11:59:00,
2013-06-15 08:14:00,59.6,59.0,29.99,West,278,0.0,2.0,98,0.00,,,0.00,weatherlink.com 1.10,2013-06-15 12:14:00,
2013-06-15 08:29:00,60.7,61.0,30.00,WNW,303,0.0,4.0,99,0.00,,,0.00,weatherlink.com 1.10,2013-06-15 12:29:00,
2013-06-15 08:44:00,62.4,62.0,30.00,NNW,341,1.0,3.0,98,0.00,,,0.00,weatherlink.com 1.10,2013-06-15 12:44:00,
2013-06-15 08:59:00,64.6,61.0,30.01,WNW,293,0.0,3.0,89,0.00,,,0.00,weatherlink.com 1.10,2013-06-15 12:59:00,
2013-06-15 09:14:00,66.3,60.0,30.00,NW,304,1.0,3.0,80,0.00,,,0.00,weatherlink.com 1.10,2013-06-15 13:14:00,
2013-06-15 09:30:00,67.5,60.0,30.00,NNE,19,1.0,3.0,76,0.00,,,0.00,weatherlink.com 1.10,2013-06-15 13:30:00,
2013-06-15 09:45:00,69.0,60.0,29.99,North,360,3.0,3.0,73,0.00,,,0.00,weatherlink.com 1.10,2013-06-15 13:45:00,
2013-06-15 10:00:00,70.6,61.0,29.99,WNW,286,0.0,3.0,71,0.00,,,0.00,weatherlink.com 1.10,2013-06-15 14:00:00,
2013-06-15 10:15:00,71.6,58.0,29.99,WSW,244,3.0,5.0,63,0.00,,,0.00,weatherlink.com 1.10,2013-06-15 14:15:00,
2013-06-15 10:30:00,72.4,58.0,29.99,West,259,0.0,5.0,60,0.00,,,0.00,weatherlink.com 1.10,2013-06-15 14:30:00,
2013-06-15 10:45:00,72.9,59.0,29.99,West,261,4.0,6.0,63,0.00,,,0.00,weatherlink.com 1.10,2013-06-15 14:45:00,
2013-06-15 11:00:00,74.4,59.0,29.98,South,185,4.0,6.0,60,0.00,,,0.00,weatherlink.com 1.10,2013-06-15 15:00:00,
2013-06-15 11:15:00,74.8,60.0,29.97,WNW,290,0.0,4.0,60,0.00,,,0.00,weatherlink.com 1.10,2013-06-15 15:15:00,
2013-06-15 11:30:00,75.2,59.0,29.98,West,261,0.0,6.0,57,0.00,,,0.00,weatherlink.com 1.10,2013-06-15 15:30:00,
2013-06-15 11:45:00,76.2,60.0,29.98,WSW,241,2.0,6.0,57,0.00,,,0.00,weatherlink.com 1.10,2013-06-15 15:45:00,
2013-06-15 12:00:00,76.8,59.0,29.97,SW,218,3.0,9.0,54,0.00,,,0.00,weatherlink.com 1.10,2013-06-15 16:00:00,
2013-06-15 12:15:00,76.5,59.0,29.96,SW,236,4.0,11.0,54,0.00,,,0.00,weatherlink.com 1.10,2013-06-15 16:15:00,
2013-06-15 12:30:00,76.9,59.0,29.96,West,260,0.0,6.0,55,0.00,,,0.00,weatherlink.com 1.10,2013-06-15 16:30:00,
2013-06-15 12:45:00,77.9,59.0,29.95,WSW,237,1.0,9.0,52,0.00,,,0.00,weatherlink.com 1.10,2013-06-15 16:45:00,
2013-06-15 13:00:00,77.7,59.0,29.95,SSW,209,1.0,7.0,52,0.00,,,0.00,weatherlink.com 1.10,2013-06-15 17:00:00,
2013-06-15 13:15:00,76.6,59.0,29.95,West,265,0.0,8.0,54,0.00,,,0.00,weatherlink.com 1.10,2013-06-15 17:15:00,
2013-06-15 13:30:00,77.8,57.0,29.95,West,275,3.0,9.0,49,0.00,,,0.00,weatherlink.com 1.10,2013-06-15 17:30:00,
2013-06-15 13:45:00,77.8,57.0,29.95,North,5,4.0,9.0,49,0.00,,,0.00,weatherlink.com 1.10,2013-06-15 17:45:00,
2013-06-15 14:00:00,80.1,57.0,29.95,NW,318,0.0,8.0,45,0.00,,,0.00,weatherlink.com 1.10,2013-06-15 18:00:00,
2013-06-15 14:15:00,80.2,58.0,29.94,NNW,342,0.0,7.0,46,0.00,,,0.00,weatherlink.com 1.10,2013-06-15 18:15:00,
2013-06-15 14:30:00,80.8,56.0,29.93,West,263,2.0,7.0,42,0.00,,,0.00,weatherlink.com 1.10,2013-06-15 18:30:00,
2013-06-15 14:45:00,81.8,56.0,29.93,West,263,0.0,6.0,42,0.00,,,0.00,weatherlink.com 1.10,2013-06-15 18:45:00,
2013-06-15 15:00:00,81.3,54.0,29.92,WNW,298,2.0,9.0,39,0.00,,,0.00,weatherlink.com 1.10,2013-06-15 19:00:00,
2013-06-15 15:15:00,80.5,56.0,29.92,SSW,196,4.0,8.0,43,0.00,,,0.00,weatherlink.com 1.10,2013-06-15 19:15:00,
2013-06-15 15:30:00,80.3,58.0,29.92,WNW,288,0.0,5.0,47,0.00,,,0.00,weatherlink.com 1.10,2013-06-15 19:30:00,
2013-06-15 15:45:00,81.1,57.0,29.91,WNW,286,0.0,6.0,44,0.00,,,0.00,weatherlink.com 1.10,2013-06-15 19:45:00,
2013-06-15 16:00:00,80.9,56.0,29.91,South,188,0.0,5.0,43,0.00,,,0.00,weatherlink.com 1.10,2013-06-15 20:00:00,
2013-06-15 16:15:00,81.1,56.0,29.91,WSW,237,2.0,6.0,43,0.00,,,0.00,weatherlink.com 1.10,2013-06-15 20:15:00,
2013-06-15 16:30:00,80.4,61.0,29.91,SW,232,0.0,3.0,51,0.00,,,0.00,weatherlink.com 1.10,2013-06-15 20:30:00,
2013-06-15 16:45:00,80.9,60.0,29.91,WSW,248,0.0,5.0,49,0.00,,,0.00,weatherlink.com 1.10,2013-06-15 20:45:00,
2013-06-15 17:00:00,81.1,61.0,29.91,South,181,3.0,7.0,51,0.00,,,0.00,weatherlink.com 1.10,2013-06-15 21:00:00,
2013-06-15 17:16:00,80.3,57.0,29.91,SSW,213,0.0,7.0,45,0.00,,,0.00,weatherlink.com 1.10,2013-06-15 21:16:00,
2013-06-15 17:31:00,81.0,59.0,29.91,WNW,286,1.0,4.0,48,0.00,,,0.00,weatherlink.com 1.10,2013-06-15 21:31:00,
2013-06-15 17:46:00,81.3,59.0,29.91,NW,311,2.0,5.0,46,0.00,,,0.00,weatherlink.com 1.10,2013-06-15 21:46:00,
2013-06-15 18:01:00,80.3,57.0,29.91,West,274,1.0,6.0,45,0.00,,,0.00,weatherlink.com 1.10,2013-06-15 22:01:00,
2013-06-15 18:16:00,79.7,59.0,29.91,West,273,0.0,5.0,50,0.00,,,0.00,weatherlink.com 1.10,2013-06-15 22:16:00,
2013-06-15 18:31:00,78.9,58.0,29.92,SW,224,1.0,5.0,49,0.00,,,0.00,weatherlink.com 1.10,2013-06-15 22:31:00,
2013-06-15 18:46:00,77.6,57.0,29.91,West,267,0.0,2.0,50,0.00,,,0.00,weatherlink.com 1.10,2013-06-15 22:46:00,
2013-06-15 19:01:00,77.2,60.0,29.91,West,267,0.0,1.0,56,0.00,,,0.00,weatherlink.com 1.10,2013-06-15 23:01:00,
2013-06-15 19:16:00,76.5,60.0,29.91,West,269,0.0,1.0,56,0.00,,,0.00,weatherlink.com 1.10,2013-06-15 23:16:00,
2013-06-15 19:31:00,75.0,59.0,29.91,WNW,286,0.0,2.0,58,0.00,,,0.00,weatherlink.com 1.10,2013-06-15 23:31:00,
2013-06-15 19:46:00,73.5,61.0,29.92,WNW,286,0.0,1.0,66,0.00,,,0.00,weatherlink.com 1.10,2013-06-15 23:46:00,
2013-06-15 20:01:00,71.7,61.0,29.92,West,273,0.0,0.0,69,0.00,,,0.00,weatherlink.com 1.10,2013-06-16 00:01:00,
2013-06-15 20:16:00,69.7,60.0,29.93,West,273,0.0,1.0,72,0.00,,,0.00,weatherlink.com 1.10,2013-06-16 00:16:00,
2013-06-15 20:31:00,67.8,60.0,29.93,West,273,0.0,0.0,75,0.00,,,0.00,weatherlink.com 1.10,2013-06-16 00:31:00,
2013-06-15 20:46:00,66.5,59.0,29.94,West,273,0.0,0.0,77,0.00,,,0.00,weatherlink.com 1.10,2013-06-16 00:46:00,
2013-06-15 21:01:00,65.5,58.0,29.94,West,273,0.0,0.0,78,0.00,,,0.00,weatherlink.com 1.10,2013-06-16 01:01:00,
2013-06-15 21:16:00,64.5,58.0,29.94,West,273,0.0,0.0,79,0.00,,,0.00,weatherlink.com 1.10,2013-06-16 01:16:00,
2013-06-15 21:31:00,63.8,57.0,29.94,West,273,0.0,0.0,78,0.00,,,0.00,weatherlink.com 1.10,2013-06-16 01:31:00,
2013-06-15 21:46:00,62.9,57.0,29.94,West,272,1.0,2.0,80,0.00,,,0.00,weatherlink.com 1.10,2013-06-16 01:46:00,
2013-06-15 22:01:00,62.4,57.0,29.95,West,273,0.0,2.0,81,0.00,,,0.00,weatherlink.com 1.10,2013-06-16 02:01:00,
2013-06-15 22:16:00,62.0,56.0,29.96,West,273,1.0,1.0,82,0.00,,,0.00,weatherlink.com 1.10,2013-06-16 02:16:00,
2013-06-15 22:31:00,60.9,56.0,29.96,West,273,1.0,1.0,84,0.00,,,0.00,weatherlink.com 1.10,2013-06-16 02:31:00,
2013-06-15 22:46:00,60.4,56.0,29.96,West,272,0.0,1.0,86,0.00,,,0.00,weatherlink.com 1.10,2013-06-16 02:46:00,
2013-06-15 23:01:00,59.9,56.0,29.96,West,272,1.0,1.0,88,0.00,,,0.00,weatherlink.com 1.10,2013-06-16 03:01:00,
2013-06-15 23:16:00,58.9,56.0,29.97,West,272,1.0,2.0,89,0.00,,,0.00,weatherlink.com 1.10,2013-06-16 03:16:00,
2013-06-15 23:31:00,58.5,56.0,29.97,East,80,0.0,2.0,91,0.00,,,0.00,weatherlink.com 1.10,2013-06-16 03:31:00,
2013-06-15 23:46:00,58.1,56.0,29.97,East,83,2.0,2.0,92,0.00,,,0.00,weatherlink.com 1.10,2013-06-16 03:46:00,